Location: Hebron
(33.0265°N, 96.8636°W)
Time: 03:14:17
(UTC+00:00)

Okean 1 - Pass Details

Date: 09 July 2022
Orbit: 532 x 553 km, 82.5° (Epoch: 13 August)

Event Time Altitude Azimuth Distance (km) Brightness Sun altitude
Rises 09:55:08 0° 333° (NNW) 2,680 7.0 -16.6°
Reaches altitude 10° 09:57:48 10° 314° (NW) 1,784 5.9 -16.1°
Enters shadow 10:00:02 17° 280° (W) 1,372 5.0 -15.8°
